Home   Weather   Søgne   Past weeks

Flag for Norway Past Weather in Søgne, Norway — Yesterday and Last 2 Weeks

Now
63 °F

Mild.


Feels Like: 63 °F
Forecast: 56 / 65 °F
Wind: 10 mph from Southeast

Location: Oksoy Fyr

Current Time: Aug 17, 2017 at 12:02:43 pm

Latest Report: Aug 17, 2017 at 11:00 am


Visibility: N/A

Pressure: 29.96 "Hg

Humidity: 77%

Dew Point: 56 °F

Location of SøgneLocation

Past Weather in Søgne — Graph

°F

Søgne Temperature Yesterday

Maximum temperature yesterday: 64 °F (at 2:00 pm)
Minimum temperature yesterday: 58 °F (at 7:00 am)
Average temperature yesterday: 61 °F

High & Low Weather Summary for the Past Weeks

 TemperatureHumidityPressure
High73 °F (Aug 10, 3:00 pm)97% (Aug 3, 4:00 pm)30.22 "Hg (Aug 3, 4:00 pm)
Low51 °F (Aug 14, 5:00 am)41% (Aug 13, 1:00 pm)29.41 "Hg (Aug 4, 8:00 am)
Average60 °F81%29.87 "Hg
* Reported Aug 2 10:00 am — Aug 17 10:00 am, Søgne. Weather by CustomWeather, © 2017

Note: Actual official high and low records may vary slightly from our data, if they occured in-between our weather recording intervals... More about our weather records

Advertising

Søgne Weather History for the Previous 24 Hours

Scroll right to see more
 ConditionsComfort  
Time TempWeatherWind HumidityBarometerVisibility
10:00 am
Thu, Aug 17
62 °FMild.10 mph79%29.98 "HgN/A
9:00 am62 °FCool.7 mph86%30.00 "HgN/A
8:00 am61 °FCool.6 mph90%30.01 "HgN/A
7:00 am61 °FCool.6 mph92%30.02 "HgN/A
6:00 am56 °FCool.2 mph95%30.03 "HgN/A
5:00 am55 °FCool.2 mph95%30.05 "HgN/A
4:00 am55 °FCool.3 mph95%30.06 "HgN/A
3:00 am55 °FCool.2 mph94%30.07 "HgN/A
2:00 am56 °FCool.2 mph91%30.08 "HgN/A
1:00 am57 °FCool.2 mph89%30.09 "HgN/A
12:00 am60 °FCool.6 mph79%30.09 "HgN/A
11:00 pm
Wed, Aug 16
60 °FCool.7 mph80%30.09 "HgN/A
10:00 pm60 °FCool.7 mph80%30.10 "HgN/A
9:00 pm61 °FCool.7 mph79%30.09 "HgN/A
8:00 pm62 °FCool.7 mph77%30.09 "HgN/A
7:00 pm63 °FMild.7 mph76%30.09 "HgN/A
6:00 pm62 °FCool.9 mph78%30.09 "HgN/A
5:00 pm63 °FMild.10 mph77%30.08 "HgN/A
4:00 pm63 °FMild.10 mph76%30.07 "HgN/A
3:00 pm63 °FMild.9 mph74%30.07 "HgN/A
2:00 pm64 °FMild.9 mph73%30.07 "HgN/A
1:00 pm63 °FMild.10 mph77%30.06 "HgN/A
12:00 pm63 °FMild.9 mph78%30.06 "HgN/A
Weather by CustomWeather, © 2017

See weather overviewHow to use our weather pages